Location: Härggis
(46.9540°N, 8.4897°E)
Time: 23:08:47
(UTC+00:00)

Lacrosse 5 - Pass Details

Date: 27 May 2022
Orbit: 714 x 724 km, 57.0° (Epoch: 09 March)

Event Time Altitude Azimuth Distance (km) Brightness Sun altitude
Exits shadow 01:46:10 19° 243° (WSW) 1,691 3.3 -14.5°
Maximum altitude 01:49:52 71° 325° (NW) 766 2.0 -14.2°
Drops below altitude 10° 01:54:58 10° 50° (NE) 2,217 5.7 -13.7°
Sets 01:57:22 0° 52° (NE) 3,138 6.8 -13.4°
